Back to catalog

SL-12 R/B

AUX MOTOR

AliveHEO
NORAD 28632·ROCKET BODY·🇷🇺 Russia

Launched Mar 29, 2005 from Baikonur Cosmodrome

Loading…

Next Passes (next 24 hours)

TLE

FreshSource: Space-Track

Epoch: Sep 14, 2026, 03:40 UTC

1 28632U 05010D   26257.15281662  .00010786  00000-0  10062-2 0  9993
2 28632  47.3256 340.1666 4587970 283.8360  30.6761  6.36120245259161

Track SL-12 R/B in real time with AllMySat

Download on the App Store